"Pseudo-MPEC" for CDEYU32

Created 2025 Sep 1 1:35:04 UT using Find_Orb

Click here for an explanation of pseudo-MPECs

 
 Astrometry: 
     CDEYU32*1C2025 08 30.21997020 58 49.510+25 35 36.60   ~8U65 20.22GVNEOCPG96
     CDEYU32 1C2025 08 30.22515420 58 51.660+25 35 25.20   ~8U65 20.41GVNEOCPG96
     CDEYU32 1C2025 08 30.23034220 58 53.760+25 35 12.90   ~8U65 19.85GVNEOCPG96
     CDEYU32 1C2025 08 30.25586420 59 04.420+25 34 14.20   ~8U6Z 21.48GVNEOCPG96
     CDEYU32 1C2025 08 30.25651020 59 04.650+25 34 13.00   ~8U6Z 22.00GVNEOCPG96
     CDEYU32 1C2025 08 30.25715720 59 04.920+25 34 11.50   ~8U6Z 21.66GVNEOCPG96
     CDEYU32 !C2025 08 30.36312 20 59 50.05 +25 29 55.1    ~8U9K 20.1 GVNEOCP673
     CDEYU32 !C2025 08 30.36657 20 59 51.50 +25 29 46.5    ~8U9K       VNEOCP673
     CDEYU32 1C2025 08 30.81175021 03 20.779+25 12 06.00   ~8UN5 20.0 GXNEOCP033
     CDEYU32 1C2025 08 30.81340021 03 21.478+25 12 02.80   ~8UN5 19.9 GXNEOCP033
     CDEYU32 1C2025 08 30.81505021 03 22.169+25 11 59.10   ~8UN5 19.9 GXNEOCP033
     CDEYU32 1C2025 08 30.81670021 03 22.867+25 11 55.40   ~8UN5 19.9 GXNEOCP033
     CDEYU32 KC2025 08 30.96945221 04 25.98 +25 06 14.2    ~8V05 20.1 GVNEOCP104
     CDEYU32 KC2025 08 30.97841721 04 29.62 +25 05 48.8    ~8V15 20.2 GVNEOCPK51
     CDEYU32 KC2025 08 30.98336421 04 31.66 +25 05 36.8    ~8V15 20.5 GVNEOCPK51
     CDEYU32 KC2025 08 30.98831021 04 33.70 +25 05 24.7    ~8V15 20.6 GVNEOCPK51
     CDEYU32 KC2025 08 31.21856021 06 17.07 +24 56 42.5    ~8V65       VNEOCPH21
     CDEYU32 KC2025 08 31.22048821 06 17.82 +24 56 37.7    ~8V65       VNEOCPH21
     CDEYU32 1C2025 08 31.28816021 06 53.055+24 54 34.05   ~8VFZ 20.03GVNEOCPT12
     CDEYU32 1C2025 08 31.28924021 06 53.491+24 54 31.64   ~8VFZ 19.94GVNEOCPT12
     CDEYU32 1C2025 08 31.29119021 06 54.259+24 54 27.37   ~8VFZ 20.00GVNEOCPT12
     CDEYU32 IC2025 08 31.81883121 10 41.70 +24 32 57.4    ~8VKK 20.8 GVNEOCPL01
     CDEYU32 KC2025 08 31.82051421 10 42.38 +24 32 53.6    ~8VKK 20.3 GVNEOCPL01
     CDEYU32 KC2025 08 31.82219721 10 43.06 +24 32 50.0    ~8VKK 20.6 GVNEOCPL01
     CDEYU32 KC2025 08 31.83120721 10 46.62 +24 32 29.8    ~8VKK 20.9 GVNEOCPL01
     CDEYU32 KC2025 08 31.88471021 11 07.83 +24 30 27.6    ~8VM5 19.9 GVNEOCP104
     CDEYU32 KC2025 08 31.89161421 11 10.53 +24 30 11.9    ~8VM5 20.0 GVNEOCP104
     CDEYU32 KB2025 08 31.89612 21 11 12.35 +24 30 00.9    ~8VMZ 20.7 GXNEOCP126
     CDEYU32 KC2025 08 31.89851721 11 13.18 +24 29 55.3    ~8VM5 19.9 GVNEOCP104
     CDEYU32 KB2025 08 31.90928 21 11 17.52 +24 29 31.1    ~8VMZ 20.9 GXNEOCP126
     CDEYU32 KB2025 08 31.92245 21 11 22.61 +24 28 59.1    ~8VMZ 20.9 GXNEOCP126
     CDEYU32 HB2025 08 31.92262521 11 21.636+24 30 59.48   ~9115 21.0 GWNEOCPM21
     CDEYU32 IC2025 08 31.93569921 11 28.862+24 28 14.16   ~8VNK       WNEOCPJ95
     CDEYU32 IC2025 08 31.95056121 11 34.666+24 27 38.88   ~8VNK       WNEOCPJ95

Station data:
(033) Karl Schwarzschild Observatory, Tautenburg  (N50.980139 E11.711240)
   Germany.  Observer B. Stecklum. 1.34-m f/3 Schmidt + CCD.
(104) San Marcello Pistoiese  (N44.064178 E10.803750)  Italy.  Observers P.
   Bacci, M. Maestripieri. Measurers P. Bacci, L. Tesi, G. Fagioli. 0.60-m
   reflector + CCD.
(126) Monte Viseggi  (N44.132565 E9.790150)  Italy.
   0.40-m f/5 reflector.
(673) Table Mountain Observatory, Wrightwood  (N34.381485 W117.682170)
   US/California.  Observers J. Chesley, J. Pittichova. Measurer W. M. Owen
   Jr. 0.61-m f/16 reflector + CCD.
(G96) Mt. Lemmon Survey  (N32.442729 W110.788720)  US/Arizona.  Observer E.
   J. Christensen.  + 10K CCD.
(H21) Astronomical Research Observatory, Westfield  (N39.483054 W87.968270)
   US/Illinois.  Observer R. Holmes. Measurers S. Foglia, L. Buzzi, T.
   Linder, R. Holmes. 0.40-m f/5.32 astrograph + CCD.
(J95) Great Shefford  (N51.474969 W1.447003)  UK/England.  Observer P.
   Birtwhistle. 0.41-m f/6.3 Schmidt-Cassegrain + CCD.
(K51) Osservatorio del Celado, Castello Tesino  (N46.029480 E11.657890)
   Italy.  Observers G. Favero, R. Furgoni. Measurer R. Furgoni. 0.80-m f/4
   reflector + CCD.
(L01) Višnjan Observatory, Tičan  (N45.290897 E13.749300)  Croatia.
   Observers K. Korlević, D. Pujagic, V. Dobos. Measurers D. Pujagic, K.
   Korlević. 1.0-m f/2.9 reflector + CCD.
(M21) Schiaparelli Southern Observatory, Hakos  (S23.236549 E16.361440)
   Namibia.  Observers A. Aletti, F. Bellini, L. Buzzi, G. Galli. Measurer L.
   Buzzi. 0.36-m f/8.4 reflector + CCD.
(T12) Mauna Kea-UH/Tholen NEO Follow-Up (2.24-m)  (N19.822991 W155.469434)
   US/Hawaii.  Observer R. Weryk. 2.24-m f/10.1 University of Hawaii
   reflector.

Orbital elements:  CDEYU32
   Perihelion 2025 Jul 29.245364 +/- 0.0214 TT =  5:53:19.4 (JD 2460885.745364)
Epoch 2025 Aug 31.0 TT = JDT 2460918.5   Earth MOID: 0.0451   Ma: 0.0240
M  19.494083139 +/- 0.016           (J2000 ecliptic)             AutoNEOCP
n   0.595154930 +/- 0.00048         Peri.   71.430375 +/- 0.10
a   1.399746398 +/- 0.000753        Node   231.668799 +/- 0.07
e   0.26412610 +/- 0.000396         Incl.    2.683288 +/- 0.0030
P   1.656/604.873d         H 24.66  G  0.15   U  7.6
q 1.030036837 +/- 5.27e-5    Q 1.769455960 +/- 0.0015
From 34 observations 2025 Aug. 30-31 (41.5 hr); mean residual 0".29
Residuals in arcseconds: 
250830 G96  .09+  .16-    250830 104  .55+  .16-    250831 L01  .16+  .74+    
250830 G96  .04+  .19+    250830 K51  .08-  .04+    250831 104  .10-  .22-    
250830 G96  .69-  .31-    250830 K51  .05-  .07+    250831 104  .17+  .18+    
250830 G96  .32+  .24-    250830 K51  .06-  .04+    250831 126  .30-  .09-    
250830 G96  .19-  .06+    250831 H21  .11+  .22-    250831 104  .22-  .25-    
250830 G96  .17-  .07+    250831 H21  .18-  .40-    250831 126  .61+  1.0+    
250830 673  .19+  .08-    250831 T12  .08-  .03+    250831 126  .42+  .20+    
250830 673  .09+  .17-    250831 T12  .06+  .00     250831 M21  .44-  .41-    
250830 033  .21-  .29-    250831 T12  .05+  .04+    250831 J95  .14+  .09-    
250830 033  .13-  .17+    250831 L01  .43-  .34+    250831 J95  .15-  .26-    
250830 033  .15-  .13+    250831 L01  .22-  .33+    
250830 033  .07-  .10+    250831 L01  .00   .53+    

Ephemerides (geocentric):
Date (UTC) HH   RA             Dec           delta  r     elong  mag " sig PA
---- --------  ------------   ------------  ------ ------ -----  --- --------
2025 09 01 02  21 12 31.119   +24 23 16.47  .07743 1.0704 140.8 20.7 .016 154
2025 09 01 03  21 12 48.670   +24 21 37.90  .07751 1.0705 140.9 20.7 .014 168
2025 09 01 04  21 13 06.185   +24 19 59.30  .07758 1.0706 140.9 20.7 .013   6
2025 09 01 05  21 13 23.664   +24 18 20.66  .07766 1.0707 141.0 20.7 .013  27
2025 09 01 06  21 13 41.106   +24 16 41.99  .07774 1.0707 141.0 20.7 .015  45
2025 09 01 07  21 13 58.513   +24 15 03.28  .07782 1.0708 141.1 20.7 .018  59
2025 09 01 08  21 14 15.884   +24 13 24.54  .07789 1.0709 141.1 20.7 .022  68
2025 09 01 09  21 14 33.218   +24 11 45.77  .07797 1.0710 141.2 20.7 .027  75
2025 09 01 10  21 14 50.517   +24 10 06.97  .07805 1.0711 141.2 20.7 .032  80
2025 09 01 11  21 15 07.780   +24 08 28.13  .07813 1.0712 141.3 20.7 .037  84
2025 09 01 12  21 15 25.008   +24 06 49.27  .07821 1.0713 141.4 20.7 .043  87
2025 09 01 13  21 15 42.199   +24 05 10.38  .07828 1.0714 141.4 20.7 .049  89
2025 09 01 14  21 15 59.355   +24 03 31.46  .07836 1.0715 141.5 20.7 .055  91
2025 09 01 15  21 16 16.476   +24 01 52.52  .07844 1.0716 141.5 20.7 .061  93
2025 09 01 16  21 16 33.561   +24 00 13.55  .07852 1.0717 141.6 20.7 .068  94
2025 09 01 17  21 16 50.610   +23 58 34.55  .07860 1.0718 141.6 20.8 .074  95
2025 09 01 18  21 17 07.624   +23 56 55.54  .07868 1.0719 141.7 20.8 .081  97
2025 09 01 19  21 17 24.603   +23 55 16.50  .07876 1.0720 141.7 20.8 .088  97
2025 09 01 20  21 17 41.546   +23 53 37.43  .07884 1.0721 141.8 20.8 .096  98
2025 09 01 21  21 17 58.454   +23 51 58.35  .07892 1.0722 141.8 20.8 .103  99
2025 09 01 22  21 18 15.326   +23 50 19.25  .07900 1.0723 141.9 20.8 .111 100
2025 09 01 23  21 18 32.164   +23 48 40.12  .07908 1.0724 141.9 20.8 .119 100
2025 09 02 00  21 18 48.967   +23 47 00.98  .07916 1.0725 142.0 20.8 .127 101
2025 09 02 01  21 19 05.734   +23 45 21.82  .07924 1.0726 142.0 20.8 .135 101
2025 09 02 02  21 19 22.467   +23 43 42.65  .07932 1.0727 142.1 20.8 .144 102
2025 09 02 03  21 19 39.164   +23 42 03.45  .07940 1.0728 142.1 20.8 .152 102
2025 09 02 04  21 19 55.827   +23 40 24.25  .07948 1.0729 142.2 20.8 .161 102
2025 09 02 05  21 20 12.455   +23 38 45.02  .07956 1.0730 142.2 20.8 .170 103
2025 09 02 06  21 20 29.048   +23 37 05.79  .07964 1.0731 142.3 20.8 .179 103
2025 09 02 07  21 20 45.606   +23 35 26.54  .07972 1.0732 142.3 20.8 .188 103
2025 09 02 08  21 21 02.130   +23 33 47.28  .07981 1.0733 142.4 20.8 .198 104
2025 09 02 09  21 21 18.619   +23 32 08.01  .07989 1.0734 142.5 20.8 .208 104
2025 09 02 10  21 21 35.073   +23 30 28.73  .07997 1.0735 142.5 20.8 .217 104
2025 09 02 11  21 21 51.494   +23 28 49.44  .08005 1.0736 142.6 20.8 .227 105
2025 09 02 12  21 22 07.879   +23 27 10.15  .08013 1.0737 142.6 20.8 .237 105
2025 09 02 13  21 22 24.231   +23 25 30.84  .08021 1.0738 142.7 20.8 .248 105
2025 09 02 14  21 22 40.548   +23 23 51.53  .08030 1.0739 142.7 20.8 .258 105
2025 09 02 15  21 22 56.830   +23 22 12.21  .08038 1.0740 142.8 20.8 .269 105
2025 09 02 16  21 23 13.079   +23 20 32.88  .08046 1.0740 142.8 20.8 .280 106
2025 09 02 17  21 23 29.294   +23 18 53.56  .08054 1.0741 142.9 20.8 .291 106
2025 09 02 18  21 23 45.474   +23 17 14.22  .08063 1.0742 142.9 20.8 .302 106
2025 09 02 19  21 24 01.620   +23 15 34.89  .08071 1.0743 143.0 20.8 .313 106
2025 09 02 20  21 24 17.733   +23 13 55.55  .08079 1.0744 143.0 20.8 .324 106
2025 09 02 21  21 24 33.811   +23 12 16.21  .08088 1.0745 143.1 20.8 .336 107
2025 09 02 22  21 24 49.856   +23 10 36.87  .08096 1.0746 143.1 20.8 .348 107
2025 09 02 23  21 25 05.867   +23 08 57.53  .08104 1.0747 143.2 20.8 .360 107
2025 09 03 00  21 25 21.844   +23 07 18.19  .08113 1.0748 143.2 20.8 .372 107
2025 09 03 01  21 25 37.788   +23 05 38.85  .08121 1.0749 143.3 20.8 .384 107